[[{"header":{"parameterUnit":"m.s-1","parameterCategory":1,"la1":30.2991,"la2":30.254,"lo1":-89.0895,"lo2":-89.0444,"dy":0.0017,"dx":0.0017,"nx":28,"ny":28,"refTime":"2025-07-22T03:00:00:Z","depth":0,"parameterNumber":2,"parameterNumberName":"U-component_of_WINDS"},"data":[0,0,0,0,0,0,0,0,0,0,0,0,0,0,0,0,0,0,0,0,0,0,0,0,0,0,0,0,0,0,0,0,0,0,0,0,0,0,0,0,0,0,0,0,0,0,0,0,0,0,0,0,0,0,0,0,0,0,1.4185,1.4185,0,1.4134,1.4133,1.4133,1.4051,1.405,1.4048,1.4047,1.3995,1.3995,1.3995,0,0,0,0,0,0,0,0,0,0,0,0,0,1.4216,1.4216,1.4185,1.4185,1.4184,1.4134,1.4133,1.4132,1.4052,1.405,1.4048,1.4046,1.3995,1.3995,1.3995,0,0,0,0,0,0,0,0,0,0,0,0,0,1.4188,1.4216,1.4185,1.4138,1.4133,1.4134,1.4133,1.4132,1.4052,1.405,1.4048,1.4046,1.3995,1.3995,1.3995,1.4039,0,0,1.3995,1.3995,0,0,0,0,0,0,0,0,1.4189,1.4187,1.4145,1.4141,1.4135,1.4097,1.4125,1.4101,1.4053,1.4083,1.4047,1.4044,1.4031,1.4027,1.4023,1.4036,1.4034,1.3995,1.3995,1.3995,1.3995,0,0,0,0,0,0,0,1.4191,1.4188,1.4165,1.4145,1.4139,1.412,1.4113,1.412,1.407,1.408,1.4074,1.4069,1.4027,1.4023,1.4021,1.4033,1.3995,1.3995,1.3995,1.3995,1.4084,1.4087,0,0,0,0,0,0,1.42,1.4191,1.4166,1.4163,1.4158,1.4121,1.4114,1.4111,1.4069,1.4061,1.4071,1.4065,1.4024,1.4021,1.4019,1.407,1.3995,1.3995,1.3995,1.4082,1.4085,1.4088,0,0,0,0,0,0,1.4201,1.4199,1.4168,1.4175,1.417,1.4123,1.4121,1.4112,1.4107,1.4062,1.4053,1.4075,1.4022,1.4019,1.4035,1.4067,1.3995,1.3995,1.4079,1.4083,1.4086,1.4172,0,0,0,0,0,0,1.4202,1.42,1.4215,1.4176,1.417,1.4185,1.4123,1.4112,1.4107,1.4099,1.4064,1.4056,1.402,1.4036,1.4035,1.4066,1.3995,1.4076,1.4081,1.4085,1.4166,1.4178,1.4188,0,0,0,0,0,1.4204,1.424,1.4216,1.4214,1.4188,1.4187,1.4184,1.4141,1.411,1.4126,1.4098,1.4057,1.4064,1.4038,1.4037,1.4068,1.4074,1.408,1.4085,1.4161,1.4175,1.4188,0,0,0,0,0,0,1.4283,1.4234,1.4207,1.4232,1.4215,1.4173,1.4192,1.4157,1.4149,1.4142,1.409,1.4083,1.4107,1.4088,1.4061,1.411,1.4063,1.4068,1.4121,1.4135,1.4145,1.415,1.3995,0,0,0,0,0,1.4304,1.4307,1.4264,1.429,1.4283,1.4239,1.4237,1.4206,1.4186,1.4179,1.4151,1.4134,1.4132,1.4132,1.4128,1.4163,1.4156,1.4184,1.4195,1.4204,1.421,1.423,1.4243,1.4105,1.4105,1.4105,0,0,1.4346,1.432,1.4324,1.4305,1.4288,1.4294,1.4233,1.4241,1.4245,1.4179,1.4194,1.4174,1.4151,1.4179,1.4189,1.4164,1.4246,1.4211,1.4219,1.4219,1.4237,1.4251,1.4262,1.4109,1.4108,1.4108,0,0,1.4426,1.4405,1.4427,1.4411,1.4387,1.4358,1.4364,1.4328,1.4313,1.4327,1.4279,1.4284,1.4281,1.4268,1.4261,1.434,1.4304,1.434,1.4398,1.4419,1.443,1.4439,1.447,1.4482,1.4345,1.4346,1.4346,0,1.4482,1.4488,1.4442,1.4454,1.4448,1.439,1.4412,1.44,1.4375,1.4373,1.4346,1.4343,1.4324,1.4348,1.4368,1.4364,1.437,1.4344,1.4432,1.4441,1.4449,1.4478,1.449,1.435,1.435,1.4349,1.4349,0,1.4559,1.4564,1.4584,1.4563,1.456,1.4577,1.4535,1.4537,1.4508,1.4483,1.4499,1.4474,1.4465,1.4469,1.4439,1.449,1.4476,1.4441,1.4393,1.4468,1.4494,1.4505,1.4357,1.4356,1.4354,1.4353,0,0,1.4686,1.4642,1.465,1.4642,1.4612,1.4615,1.4631,1.4623,1.4627,1.4613,1.4626,1.4627,1.4595,1.4588,1.4556,1.4574,1.4643,1.4537,1.4536,1.456,1.4702,1.473,1.4743,1.4618,1.462,1.4622,1.4704,0,1.4762,1.4786,1.4747,1.478,1.4786,1.4733,1.4747,1.4731,1.4709,1.4711,1.4686,1.4689,1.4646,1.4641,1.4657,1.4631,1.4671,1.4624,1.4632,1.4633,1.4641,1.4756,1.4785,1.4865,1.4714,1.4716,1.4717,0,1.4853,1.4845,1.488,1.4851,1.4852,1.4865,1.4857,1.4859,1.4841,1.4824,1.4817,1.4781,1.4796,1.4749,1.4771,1.474,1.4741,1.473,1.4732,1.4732,1.4681,1.4762,1.4888,1.4901,1.4732,1.4731,1.473,0,1.4946,1.4944,1.4965,1.4959,1.4925,1.4937,1.4923,1.4903,1.4902,1.4894,1.4894,1.4888,1.4885,1.4883,1.4847,1.4815,1.4874,1.4823,1.4862,1.4863,1.4878,1.4878,1.5008,1.4875,1.4875,1.4875,1.4875,0,1.5036,1.506,1.5007,1.502,1.5047,1.5002,1.503,1.5011,1.4994,1.5004,1.4957,1.4967,1.4918,1.4924,1.4896,1.492,1.4919,1.4907,1.49,1.4912,1.4914,1.4913,1.4907,1.4878,1.4877,1.4877,1.4876,0,1.5145,1.511,1.513,1.5097,1.509,1.5111,1.5084,1.5096,1.5071,1.5085,1.5085,1.5047,1.5052,1.5016,1.5013,1.4995,1.5033,1.5015,1.504,1.5035,1.5077,1.5074,1.5213,1.523,1.5084,1.5086,1.5087,0,1.5205,1.5223,1.5193,1.5196,1.5186,1.5191,1.5191,1.5149,1.515,1.5133,1.5148,1.5149,1.5147,1.5158,1.5131,1.513,1.5113,1.5161,1.5112,1.5126,1.5117,1.5117,1.512,1.5172,1.5174,1.5175,1.5177,0,1.5317,1.53,1.53,1.5296,1.5297,1.5292,1.5283,1.5289,1.5243,1.5248,1.5252,1.5252,1.5251,1.5253,1.5248,1.5235,1.52,1.5192,1.5202,1.5216,1.5231,1.5226,1.507,1.519,1.5188,1.5187,1.5187,1.5186,1.5405,1.542,1.5402,1.5405,1.5395,1.5388,1.5399,1.5377,1.538,1.5376,1.5351,1.5362,1.5346,1.5335,1.5326,1.5334,1.5311,1.5324,1.5328,1.5332,1.5341,1.5228,1.5333,1.5332,1.5332,1.5332,1.5331,0,1.5517,1.5503,1.5507,1.5498,1.5501,1.5467,1.5457,1.5463,1.5472,1.5461,1.5461,1.5469,1.5472,1.5446,1.5446,1.5458,1.5443,1.546,1.546,1.5458,1.536,1.5353,1.5473,1.5473,1.5473,1.5473,1.5473,1.5473,1.5576,1.56,1.5581,1.56,1.5586,1.5596,1.5594,1.5589,1.558,1.5591,1.5594,1.5577,1.556,1.5559,1.5562,1.5554,1.5558,1.5582,1.5569,1.5478,1.5464,1.5451,1.5445,1.5582,1.5582,1.5666,1.5667,1.5668]},{"header":{"parameterUnit":"m.s-1","parameterCategory":1,"la1":30.2991,"la2":30.254,"lo1":-89.0895,"lo2":-89.0444,"dy":0.0017,"dx":0.0017,"nx":28,"ny":28,"refTime":"2025-07-22T03:00:00:Z","depth":0,"parameterNumber":3,"parameterNumberName":"V-component_of_WINDS"},"data":[0,0,0,0,0,0,0,0,0,0,0,0,0,0,0,0,0,0,0,0,0,0,0,0,0,0,0,0,0,0,0,0,0,0,0,0,0,0,0,0,0,0,0,0,0,0,0,0,0,0,0,0,0,0,0,0,0,0,-3.0945,-3.0945,0,-3.0904,-3.0903,-3.0903,-3.0888,-3.0888,-3.0888,-3.0888,-3.0841,-3.084,-3.0838,0,0,0,0,0,0,0,0,0,0,0,0,0,-3.1011,-3.1009,-3.0946,-3.0945,-3.0945,-3.0904,-3.0903,-3.0903,-3.0888,-3.0888,-3.0888,-3.0888,-3.0842,-3.084,-3.0838,0,0,0,0,0,0,0,0,0,0,0,0,0,-3.0977,-3.1009,-3.0946,-3.0932,-3.0931,-3.0904,-3.0903,-3.0903,-3.0888,-3.0888,-3.0888,-3.0888,-3.0842,-3.084,-3.0838,-3.082,0,0,-3.0832,-3.0831,0,0,0,0,0,0,0,0,-3.0979,-3.0974,-3.0935,-3.0933,-3.0931,-3.0901,-3.0909,-3.0875,-3.0888,-3.0904,-3.0888,-3.0888,-3.0861,-3.0857,-3.0849,-3.0818,-3.0816,-3.0832,-3.083,-3.0829,-3.0829,0,0,0,0,0,0,0,-3.0981,-3.0976,-3.0929,-3.0934,-3.0932,-3.0928,-3.0923,-3.0903,-3.0881,-3.0902,-3.0901,-3.0897,-3.086,-3.0851,-3.0847,-3.0816,-3.0832,-3.083,-3.0828,-3.0828,-3.0773,-3.0772,0,0,0,0,0,0,-3.0986,-3.0978,-3.093,-3.0928,-3.0956,-3.0926,-3.0921,-3.0911,-3.0882,-3.0877,-3.0897,-3.0896,-3.0854,-3.085,-3.0846,-3.0826,-3.0829,-3.0827,-3.0826,-3.0773,-3.0773,-3.0772,0,0,0,0,0,0,-3.0988,-3.0982,-3.0932,-3.0953,-3.0946,-3.0925,-3.0913,-3.091,-3.0901,-3.0877,-3.0873,-3.0891,-3.0854,-3.0849,-3.0828,-3.0824,-3.0826,-3.0825,-3.0773,-3.0773,-3.0772,-3.0784,0,0,0,0,0,0,-3.0989,-3.0983,-3.0976,-3.0953,-3.0945,-3.0915,-3.0913,-3.0909,-3.0898,-3.0897,-3.0871,-3.0867,-3.0854,-3.0831,-3.0826,-3.0821,-3.0823,-3.0773,-3.0773,-3.0773,-3.0784,-3.0784,-3.0784,0,0,0,0,0,-3.0992,-3.0979,-3.0975,-3.097,-3.0936,-3.0915,-3.091,-3.0897,-3.0897,-3.089,-3.0876,-3.0868,-3.0825,-3.0829,-3.0823,-3.0817,-3.0774,-3.0773,-3.0773,-3.0784,-3.0784,-3.0784,0,0,0,0,0,0,-3.0999,-3.0975,-3.0971,-3.0951,-3.0935,-3.0913,-3.0903,-3.0897,-3.088,-3.088,-3.0862,-3.0857,-3.0838,-3.0825,-3.083,-3.0801,-3.0799,-3.0797,-3.081,-3.081,-3.081,-3.0813,-3.0821,0,0,0,0,0,-3.0999,-3.0985,-3.0964,-3.0948,-3.0941,-3.0924,-3.0914,-3.0905,-3.0888,-3.0881,-3.0864,-3.0847,-3.083,-3.0819,-3.0802,-3.0782,-3.0778,-3.0776,-3.0776,-3.0776,-3.0775,-3.0767,-3.0766,-3.0771,-3.0771,-3.0771,0,0,-3.0997,-3.0982,-3.0974,-3.0949,-3.0936,-3.0922,-3.0918,-3.0902,-3.0891,-3.0878,-3.0858,-3.0846,-3.0826,-3.0807,-3.0797,-3.0796,-3.0773,-3.0776,-3.0776,-3.0774,-3.0766,-3.0766,-3.0765,-3.0771,-3.0771,-3.0771,0,0,-3.0986,-3.0973,-3.096,-3.0948,-3.093,-3.092,-3.0917,-3.0896,-3.0888,-3.0869,-3.0859,-3.0846,-3.0816,-3.0804,-3.0793,-3.0783,-3.0776,-3.0778,-3.0779,-3.0771,-3.077,-3.077,-3.0768,-3.0768,-3.0777,-3.0777,-3.0777,0,-3.0986,-3.0965,-3.0953,-3.094,-3.093,-3.092,-3.0907,-3.0895,-3.0872,-3.0865,-3.0864,-3.083,-3.0815,-3.0794,-3.0792,-3.0783,-3.078,-3.078,-3.0772,-3.0771,-3.0771,-3.0769,-3.0768,-3.0777,-3.0777,-3.0777,-3.0777,0,-3.0967,-3.0952,-3.0944,-3.0924,-3.0914,-3.09,-3.0886,-3.0877,-3.087,-3.086,-3.0842,-3.0825,-3.0806,-3.08,-3.0792,-3.0779,-3.0779,-3.0775,-3.0773,-3.0771,-3.0769,-3.0768,-3.0778,-3.0778,-3.0777,-3.0777,0,0,-3.0957,-3.0935,-3.0932,-3.0925,-3.0906,-3.0894,-3.0881,-3.0865,-3.0858,-3.0842,-3.0832,-3.0809,-3.0807,-3.0795,-3.0786,-3.0779,-3.0775,-3.0776,-3.0776,-3.0778,-3.0763,-3.0767,-3.0766,-3.0771,-3.0771,-3.077,-3.0765,0,-3.0945,-3.0923,-3.0914,-3.0895,-3.0884,-3.0876,-3.0865,-3.0852,-3.0843,-3.0831,-3.0821,-3.0806,-3.0803,-3.0796,-3.0789,-3.0777,-3.0772,-3.0777,-3.0761,-3.0761,-3.0767,-3.0764,-3.0767,-3.0763,-3.0764,-3.0764,-3.0764,0,-3.0927,-3.0916,-3.0897,-3.0884,-3.0878,-3.0868,-3.0855,-3.0843,-3.083,-3.0824,-3.0813,-3.0805,-3.0792,-3.0792,-3.0774,-3.0778,-3.0771,-3.0765,-3.0764,-3.0762,-3.0762,-3.0763,-3.0761,-3.0761,-3.0762,-3.0762,-3.0762,0,-3.0925,-3.0904,-3.0891,-3.0885,-3.0868,-3.0862,-3.0854,-3.0841,-3.0833,-3.0821,-3.0816,-3.0801,-3.0793,-3.0783,-3.0772,-3.0772,-3.0756,-3.0754,-3.0751,-3.0752,-3.0748,-3.0748,-3.0745,-3.0742,-3.0742,-3.0742,-3.0742,0,-3.0913,-3.0902,-3.0891,-3.0882,-3.0871,-3.0862,-3.085,-3.0842,-3.0831,-3.0822,-3.0814,-3.0805,-3.0791,-3.078,-3.0772,-3.076,-3.0756,-3.0751,-3.0749,-3.0752,-3.0753,-3.0747,-3.0748,-3.0742,-3.0742,-3.0742,-3.0742,0,-3.0907,-3.0899,-3.0885,-3.0872,-3.0868,-3.0861,-3.0849,-3.0841,-3.0834,-3.0822,-3.0819,-3.0806,-3.0794,-3.0782,-3.0765,-3.0759,-3.0748,-3.0745,-3.0753,-3.0752,-3.0751,-3.0752,-3.0745,-3.0744,-3.0741,-3.0741,-3.0741,0,-3.0901,-3.0893,-3.088,-3.0875,-3.0868,-3.0858,-3.0851,-3.0842,-3.0835,-3.0822,-3.0816,-3.0804,-3.0794,-3.0775,-3.0764,-3.0752,-3.0749,-3.0747,-3.0746,-3.0751,-3.075,-3.0751,-3.0752,-3.0747,-3.0747,-3.0747,-3.0748,0,-3.089,-3.0888,-3.0878,-3.0869,-3.0862,-3.0853,-3.0844,-3.084,-3.0829,-3.0822,-3.0811,-3.0803,-3.0788,-3.0777,-3.0764,-3.0756,-3.0751,-3.0748,-3.0747,-3.0751,-3.0757,-3.0755,-3.0755,-3.0748,-3.0748,-3.0748,-3.0748,-3.0748,-3.0885,-3.0879,-3.087,-3.0861,-3.0854,-3.0847,-3.0841,-3.0834,-3.0825,-3.0813,-3.0808,-3.0798,-3.0788,-3.0771,-3.0763,-3.0755,-3.0753,-3.0751,-3.0751,-3.0751,-3.0753,-3.0758,-3.0752,-3.0752,-3.0752,-3.0752,-3.0752,0,-3.0875,-3.087,-3.0862,-3.0852,-3.0846,-3.0844,-3.0835,-3.0829,-3.0821,-3.0812,-3.0804,-3.0793,-3.0783,-3.0773,-3.0762,-3.0758,-3.0755,-3.0755,-3.0756,-3.0755,-3.0753,-3.0756,-3.0758,-3.0758,-3.0758,-3.0758,-3.0758,-3.0758,-3.087,-3.0861,-3.0858,-3.0846,-3.0841,-3.0832,-3.0827,-3.0821,-3.0815,-3.0804,-3.0797,-3.0791,-3.0782,-3.0772,-3.0763,-3.0761,-3.0758,-3.0759,-3.0756,-3.0755,-3.0754,-3.0754,-3.0756,-3.0758,-3.0758,-3.0758,-3.0758,-3.0758]}]]